• Em Portugal
  • Lista de países
  • Para 7 dias
  • Temperatura da água
  • Mapas de satélite
  • Mapa do tempo
  • Widgets de tempo
  • user-avatar
    Iniciar Sessão

    Previsão horária em Monaco

    Hoje, 20 Outubro, Sexta-feira

    Tempo Temperatura Precipitação Vento Pressão Humidade
    00:00 +15°C° 0 mm 6 m/s 753 mmHg 77%
    01:00 +15°C° 0 mm 5 m/s 753 mmHg 75%
    02:00 +15°C° 0 mm 5 m/s 753 mmHg 74%
    03:00 +15°C° 0 mm 5 m/s 753 mmHg 73%
    04:00 +14°C° 0 mm 5 m/s 754 mmHg 70%
    05:00 +14°C° 0 mm 5 m/s 754 mmHg 68%
    06:00 +14°C° 0 mm 4 m/s 754 mmHg 66%
    07:00 +18°C° 0 mm 4 m/s 754 mmHg 57%
    08:00 +20°C° 0 mm 4 m/s 755 mmHg 48%
    09:00 +23°C° 0 mm 4 m/s 755 mmHg 39%
    10:00 +25°C° 0 mm 4 m/s 755 mmHg 39%
    11:00 +25°C° 0 mm 4 m/s 755 mmHg 38%
    12:00 +26°C° 0 mm 4 m/s 755 mmHg 38%
    13:00 +25°C° 0 mm 4 m/s 755 mmHg 42%
    14:00 +25°C° 0 mm 3 m/s 755 mmHg 47%
    15:00 +24°C° 0 mm 3 m/s 754 mmHg 51%
    16:00 +21°C° 0 mm 3 m/s 755 mmHg 60%
    17:00 +19°C° 0 mm 2 m/s 755 mmHg 70%
    18:00 +17°C° 0 mm 2 m/s 755 mmHg 79%
    19:00 +17°C° 0 mm 2 m/s 756 mmHg 77%
    20:00 +17°C° 0 mm 2 m/s 756 mmHg 75%
    21:00 +18°C° 0 mm 1 m/s 756 mmHg 73%
    22:00 +18°C° 0 mm 1 m/s 756 mmHg 72%
    23:00 +18°C° 0 mm 1 m/s 756 mmHg 72%

    Amanhã, 21 Outubro, Sábado

    Tempo Temperatura Precipitação Vento Pressão Humidade
    00:00 +18°C° 0 mm 1 m/s 756 mmHg 71%
    01:00 +18°C° 0 mm 1 m/s 756 mmHg 70%
    02:00 +16°C° 0 mm 1 m/s 756 mmHg 70%
    03:00 +16°C° 0 mm 1 m/s 756 mmHg 70%
    04:00 +16°C° 0 mm 1 m/s 756 mmHg 69%
    05:00 +16°C° 0 mm 1 m/s 756 mmHg 69%
    06:00 +16°C° 0 mm 1 m/s 756 mmHg 69%
    07:00 +20°C° 0 mm 1 m/s 756 mmHg 62%
    08:00 +22°C° 0 mm 1 m/s 757 mmHg 55%
    09:00 +24°C° 0 mm 2 m/s 757 mmHg 49%
    10:00 +25°C° 0 mm 2 m/s 756 mmHg 48%
    11:00 +26°C° 0 mm 3 m/s 756 mmHg 47%
    12:00 +26°C° 0 mm 4 m/s 756 mmHg 47%
    13:00 +26°C° 0 mm 4 m/s 755 mmHg 50%
    14:00 +25°C° 0 mm 5 m/s 755 mmHg 54%
    15:00 +25°C° 0 mm 5 m/s 755 mmHg 58%
    16:00 +22°C° 0 mm 5 m/s 755 mmHg 67%
    17:00 +20°C° 0 mm 4 m/s 755 mmHg 77%
    18:00 +18°C° 0 mm 4 m/s 755 mmHg 86%
    19:00 +18°C° 0 mm 4 m/s 755 mmHg 86%
    20:00 +18°C° 0 mm 4 m/s 755 mmHg 86%
    21:00 +18°C° 0 mm 4 m/s 755 mmHg 86%
    22:00 +18°C° 0 mm 4 m/s 754 mmHg 85%
    23:00 +18°C° 0 mm 4 m/s 754 mmHg 84%

    Depois de amanhã, 22 Outubro, Domingo

    Tempo Temperatura Precipitação Vento Pressão Humidade
    00:00 +18°C° 0 mm 4 m/s 754 mmHg 83%
    01:00 +17°C° 0 mm 4 m/s 754 mmHg 82%
    02:00 +17°C° 0 mm 4 m/s 753 mmHg 80%
    03:00 +17°C° 0 mm 4 m/s 753 mmHg 78%
    04:00 +15°C° 0 mm 4 m/s 753 mmHg 78%
    05:00 +15°C° 0 mm 5 m/s 753 mmHg 77%
    06:00 +14°C° 0 mm 5 m/s 752 mmHg 76%
    07:00 +16°C° 0 mm 6 m/s 752 mmHg 65%
    08:00 +18°C° 0 mm 7 m/s 752 mmHg 55%
    09:00 +21°C° 0 mm 7 m/s 752 mmHg 44%
    10:00 +22°C° 0 mm 8 m/s 752 mmHg 40%
    11:00 +23°C° 0 mm 8 m/s 751 mmHg 37%
    12:00 +23°C° 0 mm 9 m/s 751 mmHg 33%
    13:00 +22°C° 0 mm 9 m/s 750 mmHg 34%
    14:00 +22°C° 0 mm 9 m/s 750 mmHg 35%
    15:00 +21°C° 0 mm 9 m/s 749 mmHg 35%
    16:00 +18°C° 0 mm 8 m/s 749 mmHg 41%
    17:00 +16°C° 0 mm 7 m/s 750 mmHg 46%
    18:00 +14°C° 0 mm 6 m/s 750 mmHg 51%
    19:00 +14°C° 0 mm 5 m/s 750 mmHg 50%
    20:00 +14°C° 0 mm 5 m/s 750 mmHg 50%
    21:00 +13°C° 0 mm 4 m/s 751 mmHg 49%
    22:00 +13°C° 0 mm 4 m/s 751 mmHg 46%
    23:00 +13°C° 0 mm 4 m/s 751 mmHg 44%

    23 Outubro, Segunda-feira

    Tempo Temperatura Precipitação Vento Pressão Humidade
    00:00 +12°C° 0 mm 4 m/s 751 mmHg 41%
    01:00 +12°C° 0 mm 4 m/s 751 mmHg 39%
    02:00 +12°C° 0 mm 4 m/s 751 mmHg 37%
    03:00 +12°C° 0 mm 4 m/s 751 mmHg 34%
    04:00 +12°C° 0 mm 4 m/s 752 mmHg 33%
    05:00 +12°C° 0 mm 4 m/s 752 mmHg 32%
    06:00 +12°C° 0 mm 3 m/s 752 mmHg 31%
    07:00 +16°C° 0 mm 3 m/s 752 mmHg 28%
    08:00 +18°C° 0 mm 3 m/s 753 mmHg 25%
    09:00 +20°C° 0 mm 2 m/s 753 mmHg 23%
    10:00 +23°C° 0 mm 2 m/s 753 mmHg 22%
    11:00 +24°C° 0 mm 2 m/s 753 mmHg 21%
    12:00 +25°C° 0 mm 2 m/s 753 mmHg 20%
    13:00 +25°C° 0 mm 3 m/s 753 mmHg 21%
    14:00 +24°C° 0 mm 3 m/s 753 mmHg 23%
    15:00 +22°C° 0 mm 3 m/s 752 mmHg 24%
    16:00 +20°C° 0 mm 3 m/s 753 mmHg 27%
    17:00 +18°C° 0 mm 2 m/s 753 mmHg 31%
    18:00 +16°C° 0 mm 2 m/s 754 mmHg 34%
    19:00 +16°C° 0 mm 2 m/s 754 mmHg 32%
    20:00 +16°C° 0 mm 2 m/s 754 mmHg 29%
    21:00 +15°C° 0 mm 2 m/s 754 mmHg 27%
    22:00 +15°C° 0 mm 2 m/s 754 mmHg 25%
    23:00 +15°C° 0 mm 2 m/s 754 mmHg 24%

    24 Outubro, Terça-feira

    Tempo Temperatura Precipitação Vento Pressão Humidade
    00:00 +15°C° 0 mm 2 m/s 754 mmHg 23%
    01:00 +15°C° 0 mm 2 m/s 754 mmHg 24%
    02:00 +15°C° 0 mm 2 m/s 754 mmHg 24%
    03:00 +15°C° 0 mm 2 m/s 754 mmHg 25%
    04:00 +15°C° 0 mm 2 m/s 755 mmHg 26%
    05:00 +16°C° 0 mm 2 m/s 755 mmHg 27%
    06:00 +16°C° 0 mm 2 m/s 755 mmHg 29%
    07:00 +18°C° 0 mm 2 m/s 755 mmHg 27%
    08:00 +22°C° 0 mm 1 m/s 756 mmHg 24%
    09:00 +25°C° 0 mm 1 m/s 756 mmHg 22%
    10:00 +26°C° 0 mm 1 m/s 756 mmHg 23%
    11:00 +26°C° 0 mm 1 m/s 756 mmHg 23%
    12:00 +27°C° 0 mm 2 m/s 756 mmHg 23%
    13:00 +26°C° 0 mm 2 m/s 756 mmHg 26%
    14:00 +26°C° 0 mm 2 m/s 756 mmHg 29%
    15:00 +25°C° 0 mm 2 m/s 755 mmHg 32%
    16:00 +23°C° 0 mm 2 m/s 756 mmHg 37%
    17:00 +20°C° 0 mm 2 m/s 756 mmHg 43%
    18:00 +18°C° 0 mm 2 m/s 756 mmHg 48%
    19:00 +18°C° 0 mm 2 m/s 757 mmHg 46%
    20:00 +18°C° 0 mm 2 m/s 757 mmHg 44%
    21:00 +18°C° 0 mm 2 m/s 757 mmHg 43%
    22:00 +19°C° 0 mm 1 m/s 757 mmHg 43%
    23:00 +18°C° 0 mm 1 m/s 757 mmHg 43%

    25 Outubro, Quarta-feira

    Tempo Temperatura Precipitação Vento Pressão Humidade
    00:00 +18°C° 0 mm 1 m/s 757 mmHg 44%
    01:00 +18°C° 0 mm 1 m/s 757 mmHg 45%
    02:00 +18°C° 0 mm 1 m/s 757 mmHg 46%
    03:00 +18°C° 0 mm 1 m/s 757 mmHg 47%
    04:00 +18°C° 0 mm 1 m/s 757 mmHg 47%
    05:00 +18°C° 0 mm 1 m/s 757 mmHg 48%
    06:00 +16°C° 0 mm 1 m/s 757 mmHg 48%
    07:00 +20°C° 0 mm 1 m/s 758 mmHg 43%
    08:00 +21°C° 0 mm 2 m/s 758 mmHg 38%
    09:00 +25°C° 0 mm 2 m/s 758 mmHg 33%
    10:00 +26°C° 0 mm 2 m/s 758 mmHg 32%
    11:00 +26°C° 0 mm 2 m/s 758 mmHg 32%
    12:00 +27°C° 0 mm 3 m/s 758 mmHg 32%
    13:00 +26°C° 0 mm 3 m/s 758 mmHg 35%
    14:00 +25°C° 0 mm 3 m/s 758 mmHg 39%
    15:00 +24°C° 0 mm 3 m/s 758 mmHg 42%
    16:00 +21°C° 0 mm 2 m/s 759 mmHg 50%
    17:00 +19°C° 0 mm 2 m/s 759 mmHg 57%
    18:00 +17°C° 0 mm 2 m/s 760 mmHg 64%
    19:00 +17°C° 0 mm 2 m/s 760 mmHg 62%
    20:00 +17°C° 0 mm 2 m/s 761 mmHg 60%
    21:00 +17°C° 0 mm 2 m/s 761 mmHg 58%
    22:00 +17°C° 0 mm 2 m/s 761 mmHg 56%
    23:00 +17°C° 0 mm 2 m/s 761 mmHg 53%
    Mostrar mais